PRAETORIAN SDA_620

Last updated on Sat Oct 11 2025 00:02:06 GMT+0000 (Coordinated Universal Time)

1 65583U 25203U 25283.39946743 .00000065 00000+0 47159-4 0 9994 2 65583 81.3010 242.1590 0008908 141.1922 218.9877 13.84974092 4137
UTC large
Height (km)
Speed (km/s)
/
Latitude / Longitude
Inclination (degrees)
Orbital Period (minutes)
Azimuth
Elevation
Range (km)
Doppler Factor

Next 0 passes for location: London (51.5072 / 0.1276)

Sorry there are no passes over London.
PRAETORIAN SDA_620